Погода в Цаган-Оле

Россия / Забайкальский край     51°21′31″N   115°28′37″E
темп.,
°C
ветер,
м/с
пор.,
м/с
влажн.,
%
обл.,
%
осадки,
мм/ч
давл.,
гПа
погр.,
м
3 марта, ср
ср300:00−20ю3499100 0.0 101562
03:00−20ю3398100 0.0 101343
06:00−20ю2297100 0.0 101224
09:00−20ююз129677 0.0 101220
12:00−13зюз1188100 0.0 1010162
15:00−9зсз1383100 0.0 1008284
18:00−11ююв229097 0.0 100821
21:00−10ююз359696 0.8 1009166
4 марта, чт
чт400:00−11з3394100 0.5 101142
03:00−15зсз61475100 0.5 1013345
06:00−18зсз6167933 0.0 1015371
09:00−19зсз8167817 0.0 1019505
12:00−17сз69760 0.0 1022742
15:00−16ссз796710 0.0 10241398
18:00−17ссз487867 0.0 1027199
21:00−23сз227779 0.0 103320
5 марта, пт
пт500:00−26ссз11778 0.0 103620
03:00−27ссв12774 0.0 103919
06:00−29ссз117733 0.0 104219
09:00−29сз118016 0.0 104519
12:00−22юз11750 0.0 1043209
15:00−19ююз33750 0.0 1041449
18:00−20ю46900 0.0 1040141
21:00−25ю33974 0.0 104123
6 марта, сб
сб600:00−26ююв22950 0.0 104019
03:00−27ююв229519 0.0 103819
06:00−25вюв119396 0.0 103519
09:00−25всв119192 0.0 103419
12:00−20юв0187100 0.0 1031225
15:00−16юз1283100 0.0 1028345
18:00−16зюз119092 0.0 102720
21:00−20ююз229546 0.0 103020
7 марта, вс
вс700:00−20ююз239629 0.0 102920
03:00−19юз239615 0.0 102820
06:00−16зюз128614 0.0 102820
09:00−14зюз118338 0.0 102820
12:00−8ююз12830 0.0 1026188
15:00−5ююз33850 0.0 1025383
18:00−7ю339120 0.0 102549
21:00−12ю349310 0.0 102729